EZY58UA LFPG-EGGW

Flight info

Callsign EZY58UA
Flight time N/A
Altitude 24000
Route OPALE DCT KESAX DCT KUNAV Y8 BANVA M733 UNDUG
Aircraft A319/M-SDE3FGHIRWY/LB1

Departure

Time 2026-05-08 23:56
Airport Charles de Gaulle International Airport (LFPG)

Arrival

Time N/A
Airport London Luton Airport (EGGW)
Time Latitude Longitude Altitude Speed Heading
2026-05-08 23:40 49.00568 2.56850 378 ft 0 kts 207°
2026-05-08 23:43 49.00578 2.56858 379 ft 2 kts 208°
2026-05-08 23:43 49.00591 2.56868 380 ft 2 kts 207°
2026-05-08 23:44 49.00604 2.56878 382 ft 2 kts 208°
2026-05-08 23:44 49.00618 2.56889 383 ft 2 kts 208°
2026-05-08 23:44 49.00631 2.56899 385 ft 2 kts 207°
2026-05-08 23:44 49.00644 2.56910 386 ft 1 kts 208°
2026-05-08 23:45 49.00652 2.56919 387 ft 1 kts 254°
2026-05-08 23:45 49.00653 2.56928 388 ft 1 kts 272°
2026-05-08 23:45 49.00653 2.56933 388 ft 0 kts 268°
2026-05-08 23:46 49.00653 2.56931 388 ft 1 kts 267°
2026-05-08 23:47 49.00648 2.56857 381 ft 13 kts 265°
2026-05-08 23:47 49.00637 2.56640 361 ft 25 kts 266°
2026-05-08 23:47 49.00624 2.56403 361 ft 19 kts 265°
2026-05-08 23:47 49.00612 2.56169 349 ft 24 kts 265°
2026-05-08 23:48 49.00575 2.55950 336 ft 22 kts 256°
2026-05-08 23:48 49.00561 2.55716 337 ft 21 kts 262°
2026-05-08 23:48 49.00548 2.55488 335 ft 20 kts 266°
2026-05-08 23:48 49.00577 2.55286 333 ft 20 kts 322°
2026-05-08 23:49 49.00707 2.55217 336 ft 19 kts 345°
2026-05-08 23:49 49.00828 2.55165 341 ft 16 kts 345°
2026-05-08 23:49 49.00932 2.55124 346 ft 14 kts 345°
2026-05-08 23:49 49.01017 2.55081 350 ft 11 kts 343°
2026-05-08 23:50 49.01104 2.55043 355 ft 15 kts 345°
2026-05-08 23:50 49.01207 2.54998 358 ft 16 kts 344°
2026-05-08 23:50 49.01314 2.54953 361 ft 15 kts 343°
2026-05-08 23:50 49.01409 2.54911 365 ft 13 kts 352°
2026-05-08 23:51 49.01534 2.54893 367 ft 21 kts 357°
2026-05-08 23:51 49.01686 2.54876 370 ft 21 kts 357°
2026-05-08 23:51 49.01828 2.54856 372 ft 20 kts 356°
2026-05-08 23:51 49.01931 2.54786 373 ft 16 kts 280°
2026-05-08 23:52 49.01923 2.54596 367 ft 20 kts 265°
2026-05-08 23:52 49.01912 2.54365 365 ft 22 kts 266°
2026-05-08 23:52 49.01899 2.54130 363 ft 23 kts 266°
2026-05-08 23:52 49.01885 2.53882 365 ft 22 kts 266°
2026-05-08 23:53 49.01872 2.53633 367 ft 24 kts 267°
2026-05-08 23:53 49.01855 2.53364 366 ft 26 kts 266°
2026-05-08 23:53 49.01842 2.53091 368 ft 25 kts 266°
2026-05-08 23:53 49.01833 2.52832 370 ft 23 kts 262°
2026-05-08 23:54 49.01814 2.52589 375 ft 21 kts 266°
2026-05-08 23:54 49.01803 2.52374 378 ft 20 kts 265°
2026-05-08 23:54 49.01796 2.52183 374 ft 18 kts 280°
2026-05-08 23:55 49.02022 2.52109 376 ft 17 kts 359°
2026-05-08 23:55 49.02110 2.52204 376 ft 17 kts 81°
2026-05-08 23:55 49.02122 2.52457 376 ft 50 kts 85°
2026-05-08 23:55 49.02177 2.53426 378 ft 130 kts 85°
2026-05-08 23:56 49.02252 2.54996 812 ft 156 kts 86°
2026-05-08 23:56 49.02315 2.56581 1709 ft 154 kts 84°
2026-05-08 23:56 49.02404 2.58177 2512 ft 159 kts 83°
2026-05-08 23:56 49.02511 2.59918 3149 ft 175 kts 83°
2026-05-08 23:57 49.02625 2.61827 3775 ft 192 kts 84°
2026-05-08 23:57 49.02869 2.66203 5047 ft 231 kts 85°
2026-05-08 23:57 49.03524 2.73797 7384 ft 270 kts 65°
2026-05-08 23:57 49.08251 2.77039 10212 ft 291 kts 344°
2026-05-08 23:58 49.13398 2.72233 12003 ft 335 kts 326°